Volver al catálogo

STARLINK-31076

ActivoComunicacionesVLEO
NORAD 58736·PAYLOAD·🇺🇸 United States

Lanzado Jan 7, 2024 desde Cape Canaveral Space Force Station

Loading…

Próximos Pases (próximas 24 horas)

TLE

ActualizadoSource: CelesTrak SupGP

Época: Sep 15, 2026, 02:34 UTC

1 58736C 24005J   26258.10743056 -.00036629  00000+0 -13268-2 0  2586
2 58736  43.0012 229.8232 0001138 267.6361 138.9470 15.27594253    19

Sigue STARLINK-31076 en tiempo real con AllMySat

Download on the App Store